| time (UTC) | temp F | wind direction | speed MPH | gust MPH | rain 1hr in | rain 24hr in | rain mn in | humidity % | barometer mb |
| 20260504044534 | 54 | 39 | 24.0 | 34.0 | 0.00 | 0.00 | 0.00 | 42 | 1010.5 |
| 20260504043036 | 56 | 34 | 28.0 | 36.0 | 0.00 | 0.00 | 0.00 | 42 | 1009.9 |
| 20260504041530 | 55 | 26 | 15.0 | 19.0 | 0.00 | 0.00 | 0.00 | 43 | 1009.4 |
| 20260504040032 | 56 | 22 | 14.0 | 17.0 | 0.00 | 0.00 | 0.00 | 41 | 1009.1 |
| 20260504034531 | 57 | 30 | 13.0 | 19.0 | 0.00 | 0.00 | 0.00 | 40 | 1008.7 |
| 20260504033033 | 57 | 30 | 15.0 | 20.0 | 0.00 | 0.00 | 0.00 | 39 | 1008.4 |
| 20260504031532 | 58 | 33 | 14.0 | 20.0 | 0.00 | 0.00 | 0.00 | 38 | 1008.2 |
| 20260504030031 | 60 | 25 | 19.0 | 25.0 | 0.00 | 0.00 | 0.00 | 36 | 1007.9 |
| 20260504024535 | 61 | 26 | 16.0 | 27.0 | 0.00 | 0.00 | 0.00 | 34 | 1007.7 |
| 20260504023030 | 62 | 26 | 14.0 | 19.0 | 0.00 | 0.00 | 0.00 | 31 | 1007.6 |
| 20260504021532 | 65 | 26 | 16.0 | 22.0 | 0.00 | 0.00 | 0.00 | 28 | 1007.6 |
| 20260504020032 | 67 | 9 | 10.0 | 16.0 | 0.00 | 0.00 | 0.00 | 23 | 1007.5 |
| 20260504014531 | 68 | 355 | 16.0 | 23.0 | 0.00 | 0.00 | 0.00 | 21 | 1007.7 |
| 20260504013037 | 70 | 351 | 18.0 | 22.0 | 0.00 | 0.00 | 0.00 | 20 | 1007.6 |
| 20260504011530 | 70 | 360 | 18.0 | 24.0 | 0.00 | 0.00 | 0.00 | 20 | 1007.6 |
| 20260504010031 | 70 | 336 | 17.0 | 26.0 | 0.00 | 0.00 | 0.00 | 20 | 1007.6 |
| 20260504004530 | 71 | 330 | 16.0 | 27.0 | 0.00 | 0.00 | 0.00 | 20 | 1007.7 |
| 20260504003040 | 71 | 348 | 15.0 | 27.0 | 0.00 | 0.00 | 0.00 | 20 | 1007.9 |
| 20260504001530 | 72 | 360 | 16.0 | 24.0 | 0.00 | 0.00 | 0.00 | 20 | 1008.1 |
| 20260504000028 | 71 | 345 | 14.0 | 24.0 | 0.00 | 0.00 | 0.00 | 20 | 1008.3 |
| 20260503234533 | 72 | 337 | 16.0 | 26.0 | 0.00 | 0.00 | 0.00 | 20 | 1008.3 |
| 20260503233038 | 72 | 342 | 19.0 | 26.0 | 0.00 | 0.00 | 0.00 | 20 | 1008.3 |
| 20260503231531 | 71 | 310 | 8.0 | 21.0 | 0.00 | 0.00 | 0.00 | 21 | 1008.3 |
| 20260503230030 | 72 | 355 | 15.0 | 26.0 | 0.00 | 0.00 | 0.00 | 21 | 1008.2 |
| 20260503224530 | 71 | 306 | 9.0 | 24.0 | 0.00 | 0.00 | 0.00 | 21 | 1008.4 |
| 20260503223030 | 71 | 355 | 13.0 | 28.0 | 0.00 | 0.00 | 0.00 | 21 | 1008.4 |
| 20260503221530 | 71 | 306 | 9.0 | 29.0 | 0.00 | 0.00 | 0.00 | 21 | 1008.6 |
| 20260503220030 | 71 | 316 | 10.0 | 22.0 | 0.00 | 0.00 | 0.00 | 21 | 1008.9 |
| 20260503214532 | 71 | 335 | 17.0 | 25.0 | 0.00 | 0.00 | 0.00 | 22 | 1009.0 |
| 20260503213033 | 71 | 309 | 16.0 | 23.0 | 0.00 | 0.00 | 0.00 | 22 | 1009.2 |
| 20260503211530 | 70 | 323 | 7.0 | 24.0 | 0.00 | 0.00 | 0.00 | 21 | 1009.5 |
| 20260503210028 | 71 | 324 | 10.0 | 22.0 | 0.00 | 0.00 | 0.00 | 22 | 1009.7 |
| 20260503204528 | 70 | 327 | 12.0 | 21.0 | 0.00 | 0.00 | 0.00 | 22 | 1009.8 |
| 20260503203036 | 69 | 283 | 11.0 | 22.0 | 0.00 | 0.00 | 0.00 | 23 | 1010.0 |
| 20260503201532 | 70 | 294 | 12.0 | 20.0 | 0.00 | 0.00 | 0.00 | 22 | 1010.4 |
| 20260503200034 | 69 | 308 | 12.0 | 25.0 | 0.00 | 0.00 | 0.00 | 23 | 1010.6 |
| 20260503194531 | 69 | 324 | 17.0 | 29.0 | 0.00 | 0.00 | 0.00 | 20 | 1010.7 |
| 20260503193030 | 69 | 296 | 11.0 | 21.0 | 0.00 | 0.00 | 0.00 | 20 | 1010.9 |
| 20260503191528 | 69 | 312 | 15.0 | 23.0 | 0.00 | 0.00 | 0.00 | 22 | 1011.2 |
| 20260503190032 | 68 | 281 | 12.0 | 22.0 | 0.00 | 0.00 | 0.00 | 21 | 1011.2 |
| 20260503184536 | 68 | 259 | 13.0 | 24.0 | 0.00 | 0.00 | 0.00 | 22 | 1011.3 |
| 20260503183029 | 68 | 313 | 17.0 | 23.0 | 0.00 | 0.00 | 0.00 | 22 | 1011.5 |
| 20260503181529 | 68 | 269 | 13.0 | 25.0 | 0.00 | 0.00 | 0.00 | 23 | 1011.6 |
| 20260503180035 | 68 | 306 | 10.0 | 23.0 | 0.00 | 0.00 | 0.00 | 24 | 1011.8 |
| 20260503174532 | 67 | 286 | 18.0 | 27.0 | 0.00 | 0.00 | 0.00 | 24 | 1012.0 |
| 20260503173034 | 68 | 298 | 13.0 | 24.0 | 0.00 | 0.00 | 0.00 | 25 | 1012.2 |
| 20260503171537 | 67 | 286 | 10.0 | 22.0 | 0.00 | 0.00 | 0.00 | 24 | 1012.2 |
| 20260503081534 | 48 | 284 | 3.0 | 9.0 | 0.00 | 0.00 | 0.00 | 67 | 1015.2 |
| 20260503071552 | 48 | 266 | 2.0 | 6.0 | 0.00 | 0.00 | 0.00 | 65 | 1015.7 |